{"data":{"norad_id":56778,"intl_designator":"2023-078M","name":"STARLINK-6304","alt_names":[],"object_type":"PAYLOAD","status":"ACTIVE","operator":null,"country":"US","launch_date":"2023-05-31","launch_site_code":"AFWTR","launch_vehicle":null,"mission":null,"orbit_class":"UNKNOWN","rcs_meters":null,"size_class":null,"mass_kg":null,"dimensions":null,"purposes":["comms"],"wikipedia_slug":null,"has_3d_model":false,"image_url":null,"decayed_at":null,"tle_current":{"epoch":"2026-05-25T03:45:27.494208Z","epoch_age_seconds":51781,"freshness":"FRESH","line1":"1 56778U 23078M   26145.15656822 -.00000015  00000+0  65454-5 0  9991","line2":"2 56778  69.9987 131.8132 0003565 267.6619  92.4132 14.98331176164621","mean_motion":14.98331176,"eccentricity":0.0003565,"inclination_deg":69.9987,"raan_deg":131.8132,"arg_perigee_deg":267.6619,"mean_anomaly_deg":92.4132,"bstar":6.5454e-6,"rev_number":16462,"period_min":96.106923693884,"perigee_km":569.57451179466,"apogee_km":574.52999673295,"semimajor_km":6950.1892542638,"source":"CELESTRAK","updated_at":"2026-05-25T13:38:18.125583Z"}}}